Weather History for Knoxville, TN

Change the Weather History Date:

Friday, September 19, 2014

  Actual Average Record
Temperature  
Mean Temperature 72 °F 70 °F  
Max Temperature 86 °F 81 °F 98 °F (1925)
Min Temperature 57 °F 59 °F 42 °F (1901)
Degree Days  
Heating Degree Days 0 1  
Month to date heating degree days 0 4  
Since 1 July heating degree days 0 4  
Cooling Degree Days 7 6  
Month to date cooling degree days 196 160  
Year to date cooling degree days 1395 1441  
Growing Degree Days 22 (Base 50)    
Moisture  
Dew Point 59 °F    
Average Humidity 69    
Maximum Humidity 93    
Minimum Humidity 44    
Precipitation  
Precipitation 0.00 in 0.10 in 1.90 in (1969)
Month to date precipitation 0.15 2.03  
Year to date precipitation 29.41 35.63  
Snow  
Snow 0.00 in 0.00 in - ()
Month to date snowfall 0.0 0.0  
Since 1 July snowfall 0.0 0.0  
Since 1 September snowfall 0.0 0.0  
Snow Depth 0.00 in    
Sea Level Pressure  
Sea Level Pressure 30.06 in    
Wind  
Wind Speed 5 mph (NE)    
Max Wind Speed 13 mph    
Max Gust Speed 16 mph    
Visibility 10 miles    
Events      
T = Trace of Precipitation, MM = Missing Value Source: NWS Daily Summary

Daily Weather History Graph

Daily Weather History Graph

Search for Another Location

Airport:

Trip Planner

Search our weather history database for the weather conditions in past years. The results will help you decide how hot, cold, wet, or windy it might be!

Date:

Astronomy

Sep. 19, 2014 Rise Set
Actual Time 7:21 AM EDT 7:37 PM EDT
Civil Twilight 6:56 AM EDT 8:02 PM EDT
Nautical Twilight 6:26 AM EDT 8:32 PM EDT
Astronomical Twilight 5:55 AM EDT 9:02 PM EDT
Moon 3:12 AM EDT (9/19) 4:59 PM EDT (9/19)
Length of Visible Light 13h 06m
Length of Day
12h 15m
Waning Crescent, 18% of the Moon is Illuminated
Sep 19
Waning Crescent
Sep 24
New
Oct 1
First Quarter
Oct 8
Full
Oct 15
Last Quarter

Hourly Weather History & Observations

Time (EDT) Temp. Heat Index Dew Point Humidity Pressure Visibility Wind Dir Wind Speed Gust Speed Precip Events Conditions
12:53 AM 63.0 °F - 57.9 °F 84% 30.02 in 10.0 mi NNE 6.9 mph - N/A   Mostly Cloudy
1:53 AM 61.0 °F - 57.0 °F 87% 30.01 in 10.0 mi NE 4.6 mph - N/A   Mostly Cloudy
2:53 AM 61.0 °F - 57.0 °F 87% 30.03 in 10.0 mi NE 4.6 mph - N/A   Mostly Cloudy
3:53 AM 60.1 °F - 57.0 °F 90% 30.02 in 10.0 mi NE 4.6 mph - N/A   Mostly Cloudy
4:53 AM 59.0 °F - 55.9 °F 90% 30.03 in 10.0 mi NE 4.6 mph - N/A   Scattered Clouds
5:53 AM 57.9 °F - 55.9 °F 93% 30.04 in 10.0 mi NE 4.6 mph - N/A   Scattered Clouds
6:53 AM 57.0 °F - 55.9 °F 96% 30.05 in 10.0 mi ENE 3.5 mph - N/A   Partly Cloudy
7:53 AM 57.9 °F - 55.0 °F 90% 30.07 in 10.0 mi NE 4.6 mph - N/A   Partly Cloudy
8:53 AM 62.6 °F - 55.4 °F 77% 30.10 in 10.0 mi NE 10.4 mph - N/A   Partly Cloudy
9:53 AM 66.2 °F - 57.2 °F 73% 30.10 in 10.0 mi NNE 5.8 mph - N/A   Partly Cloudy
10:53 AM 71.1 °F - 59.0 °F 66% 30.09 in 10.0 mi Variable 3.5 mph - N/A   Clear
11:53 AM 75.9 °F - 59.0 °F 56% 30.08 in 10.0 mi Calm Calm - N/A   Partly Cloudy
12:53 PM 78.1 °F - 60.1 °F 54% 30.07 in 10.0 mi West 3.5 mph - N/A   Partly Cloudy
1:53 PM 80.1 °F 80.7 °F 59.0 °F 48% 30.05 in 10.0 mi Calm Calm - N/A   Partly Cloudy
2:53 PM 82.0 °F 82.4 °F 60.1 °F 47% 30.04 in 10.0 mi Variable 3.5 mph - N/A   Partly Cloudy
3:53 PM 84.9 °F 84.8 °F 60.1 °F 43% 30.02 in 10.0 mi North 8.1 mph - N/A   Scattered Clouds
4:53 PM 82.9 °F 82.8 °F 59.0 °F 44% 30.02 in 10.0 mi NE 4.6 mph - N/A   Scattered Clouds
6:53 PM 81.0 °F 81.6 °F 60.1 °F 49% 30.04 in 10.0 mi Calm Calm - N/A   Mostly Cloudy
7:53 PM 75.0 °F - 63.0 °F 66% 30.06 in 10.0 mi East 3.5 mph - 0.00 in   Mostly Cloudy
8:53 PM 72.0 °F - 66.0 °F 81% 30.07 in 10.0 mi Calm Calm - 0.03 in   Mostly Cloudy
9:53 PM 73.4 °F - 62.6 °F 69% 30.11 in 10.0 mi South 6.9 mph - N/A   Overcast
10:53 PM 72.0 °F - 60.1 °F 66% 30.09 in 10.0 mi South 10.4 mph - N/A   Mostly Cloudy
11:53 PM 73.0 °F - 59.0 °F 61% 30.09 in 10.0 mi SSE 9.2 mph - N/A   Mostly Cloudy